Year,Month,Day,Hour,Minute,Value (Times are PST for temperature in C)
2007,06,25,00,00,8.20
2007,06,25,00,01,8.20
2007,06,25,00,02,8.10
2007,06,25,00,03,8.10
2007,06,25,00,04,8.10
2007,06,25,00,05,8.00
2007,06,25,00,06,8.00
2007,06,25,00,07,8.00
2007,06,25,00,08,7.90
2007,06,25,00,09,7.90
2007,06,25,00,10,7.90
2007,06,25,00,11,7.90
2007,06,25,00,12,7.90
2007,06,25,00,13,7.90
2007,06,25,00,14,8.00
2007,06,25,00,15,8.00
2007,06,25,00,16,7.90
2007,06,25,00,17,7.90
2007,06,25,00,18,7.80
2007,06,25,00,19,7.80
2007,06,25,00,20,7.80
2007,06,25,00,21,7.80
2007,06,25,00,22,7.70
2007,06,25,00,23,7.70
2007,06,25,00,24,7.80
2007,06,25,00,25,7.80
2007,06,25,00,26,7.80
2007,06,25,00,27,7.90
2007,06,25,00,28,7.80
2007,06,25,00,29,7.80
2007,06,25,00,30,7.90
2007,06,25,00,31,7.90
2007,06,25,00,32,7.90
2007,06,25,00,33,7.90
2007,06,25,00,34,7.90
2007,06,25,00,35,7.90
2007,06,25,00,36,7.90
2007,06,25,00,37,7.90
2007,06,25,00,38,7.90
2007,06,25,00,39,7.90
2007,06,25,00,40,7.90
2007,06,25,00,41,7.90
2007,06,25,00,42,7.90
2007,06,25,00,43,7.90
2007,06,25,00,44,7.90
2007,06,25,00,45,7.90
2007,06,25,00,46,7.90
2007,06,25,00,47,7.90
2007,06,25,00,48,7.90
2007,06,25,00,49,8.00
2007,06,25,00,50,8.00
2007,06,25,00,51,8.10
2007,06,25,00,52,8.10
2007,06,25,00,53,8.10
2007,06,25,00,54,8.10
2007,06,25,00,55,8.10
2007,06,25,00,56,8.00
2007,06,25,00,57,8.00
2007,06,25,00,58,7.90
2007,06,25,00,59,7.90
2007,06,25,01,00,7.90
2007,06,25,01,01,7.90
2007,06,25,01,02,7.90
2007,06,25,01,03,7.90
2007,06,25,01,04,8.00
2007,06,25,01,05,8.00
2007,06,25,01,06,8.00
2007,06,25,01,07,8.00
2007,06,25,01,08,8.00
2007,06,25,01,09,8.00
2007,06,25,01,10,8.00
2007,06,25,01,11,8.00
2007,06,25,01,12,8.00
2007,06,25,01,13,8.00
2007,06,25,01,14,8.00
2007,06,25,01,15,8.00
2007,06,25,01,16,7.90
2007,06,25,01,17,7.90
2007,06,25,01,18,7.90
2007,06,25,01,19,7.90
2007,06,25,01,20,7.90
2007,06,25,01,21,7.90
2007,06,25,01,22,7.90
2007,06,25,01,23,7.90
2007,06,25,01,24,7.90
2007,06,25,01,25,7.90
2007,06,25,01,26,7.90
2007,06,25,01,27,7.90
2007,06,25,01,28,7.90
2007,06,25,01,29,7.90
2007,06,25,01,30,7.90
2007,06,25,01,31,7.90
2007,06,25,01,32,7.90
2007,06,25,01,33,7.90
2007,06,25,01,34,7.90
2007,06,25,01,35,7.90
2007,06,25,01,36,7.80
2007,06,25,01,37,7.80
2007,06,25,01,38,7.80
2007,06,25,01,39,7.80
2007,06,25,01,40,7.80
2007,06,25,01,41,7.80
2007,06,25,01,42,7.80
2007,06,25,01,43,7.80
2007,06,25,01,44,7.80
2007,06,25,01,45,7.80
2007,06,25,01,46,7.80
2007,06,25,01,47,7.80
2007,06,25,01,48,7.80
2007,06,25,01,49,7.80
2007,06,25,01,50,7.80
2007,06,25,01,51,7.80
2007,06,25,01,52,7.80
2007,06,25,01,53,7.90
2007,06,25,01,54,7.90
2007,06,25,01,55,8.00
2007,06,25,01,56,8.00
2007,06,25,01,57,8.10
2007,06,25,01,58,8.10
2007,06,25,01,59,8.10
2007,06,25,02,00,8.10
2007,06,25,02,01,8.10
2007,06,25,02,02,8.20
2007,06,25,02,03,8.20
2007,06,25,02,04,8.10
2007,06,25,02,05,8.10
2007,06,25,02,06,8.10
2007,06,25,02,07,8.00
2007,06,25,02,08,8.00
2007,06,25,02,09,8.00
2007,06,25,02,10,7.90
2007,06,25,02,11,7.90
2007,06,25,02,12,7.90
2007,06,25,02,13,7.90
2007,06,25,02,14,7.90
2007,06,25,02,15,7.90
2007,06,25,02,16,7.90
2007,06,25,02,17,7.90
2007,06,25,02,18,7.90
2007,06,25,02,19,7.90
2007,06,25,02,20,7.90
2007,06,25,02,21,7.90
2007,06,25,02,22,7.90
2007,06,25,02,23,7.90
2007,06,25,02,24,7.90
2007,06,25,02,25,7.90
2007,06,25,02,26,7.90
2007,06,25,02,27,7.90
2007,06,25,02,28,7.90
2007,06,25,02,29,7.90
2007,06,25,02,30,7.80
2007,06,25,02,31,7.80
2007,06,25,02,32,7.80
2007,06,25,02,33,7.80
2007,06,25,02,34,7.80
2007,06,25,02,35,7.70
2007,06,25,02,36,7.70
2007,06,25,02,37,7.70
2007,06,25,02,38,7.70
2007,06,25,02,39,7.60
2007,06,25,02,40,7.60
2007,06,25,02,41,7.60
2007,06,25,02,42,7.60
2007,06,25,02,43,7.60
2007,06,25,02,44,7.60
2007,06,25,02,45,7.60
2007,06,25,02,46,7.60
2007,06,25,02,47,7.60
2007,06,25,02,48,7.60
2007,06,25,02,49,7.60
2007,06,25,02,50,7.60
2007,06,25,02,51,7.60
2007,06,25,02,52,7.60
2007,06,25,02,53,7.50
2007,06,25,02,54,7.50
2007,06,25,02,55,7.40
2007,06,25,02,56,7.40
2007,06,25,02,57,7.30
2007,06,25,02,58,7.30
2007,06,25,02,59,7.30
2007,06,25,03,00,7.20
2007,06,25,03,01,7.20
2007,06,25,03,02,7.20
2007,06,25,03,03,7.20
2007,06,25,03,04,7.20
2007,06,25,03,05,7.20
2007,06,25,03,06,7.10
2007,06,25,03,07,7.10
2007,06,25,03,08,7.10
2007,06,25,03,09,7.10
2007,06,25,03,10,7.10
2007,06,25,03,11,7.10
2007,06,25,03,12,7.10
2007,06,25,03,13,7.10
2007,06,25,03,14,7.10
2007,06,25,03,15,7.10
2007,06,25,03,16,7.10
2007,06,25,03,17,7.10
2007,06,25,03,18,7.10
2007,06,25,03,19,7.00
2007,06,25,03,20,7.00
2007,06,25,03,21,7.00
2007,06,25,03,22,7.00
2007,06,25,03,23,6.90
2007,06,25,03,24,6.90
2007,06,25,03,25,6.90
2007,06,25,03,26,6.90
2007,06,25,03,27,6.80
2007,06,25,03,28,6.80
2007,06,25,03,29,6.80
2007,06,25,03,30,6.80
2007,06,25,03,31,6.80
2007,06,25,03,32,6.80
2007,06,25,03,33,6.80
2007,06,25,03,34,6.80
2007,06,25,03,35,6.80
2007,06,25,03,36,6.80
2007,06,25,03,37,6.80
2007,06,25,03,38,6.80
2007,06,25,03,39,6.90
2007,06,25,03,40,6.90
2007,06,25,03,41,6.90
2007,06,25,03,42,6.90
2007,06,25,03,43,6.90
2007,06,25,03,44,6.90
2007,06,25,03,45,6.90
2007,06,25,03,46,6.90
2007,06,25,03,47,6.80
2007,06,25,03,48,6.80
2007,06,25,03,49,6.80
2007,06,25,03,50,6.80
2007,06,25,03,51,6.80
2007,06,25,03,52,6.70
2007,06,25,03,53,6.70
2007,06,25,03,54,6.70
2007,06,25,03,55,6.60
2007,06,25,03,56,6.60
2007,06,25,03,57,6.60
2007,06,25,03,58,6.60
2007,06,25,03,59,6.60
2007,06,25,04,00,6.50
2007,06,25,04,01,6.50
2007,06,25,04,02,6.50
2007,06,25,04,03,6.50
2007,06,25,04,04,6.50
2007,06,25,04,05,6.40
2007,06,25,04,06,6.40
2007,06,25,04,07,6.40
2007,06,25,04,08,6.40
2007,06,25,04,09,6.40
2007,06,25,04,10,6.50
2007,06,25,04,11,6.50
2007,06,25,04,12,6.50
2007,06,25,04,13,6.50
2007,06,25,04,14,6.60
2007,06,25,04,15,6.70
2007,06,25,04,16,6.80
2007,06,25,04,17,6.90
2007,06,25,04,18,6.90
2007,06,25,04,19,6.90
2007,06,25,04,20,6.90
2007,06,25,04,21,7.00
2007,06,25,04,22,7.00
2007,06,25,04,23,7.10
2007,06,25,04,24,7.10
2007,06,25,04,25,7.10
2007,06,25,04,26,7.10
2007,06,25,04,27,7.10
2007,06,25,04,28,7.10
2007,06,25,04,29,7.10
2007,06,25,04,30,7.10
2007,06,25,04,31,7.10
2007,06,25,04,32,7.10
2007,06,25,04,33,7.10
2007,06,25,04,34,7.10
2007,06,25,04,35,7.10
2007,06,25,04,36,7.20
2007,06,25,04,37,7.20
2007,06,25,04,38,7.20
2007,06,25,04,39,7.20
2007,06,25,04,40,7.20
2007,06,25,04,41,7.30
2007,06,25,04,42,7.30
2007,06,25,04,43,7.30
2007,06,25,04,44,7.20
2007,06,25,04,45,7.20
2007,06,25,04,46,7.20
2007,06,25,04,47,7.20
2007,06,25,04,48,7.20
2007,06,25,04,49,7.20
2007,06,25,04,50,7.20
2007,06,25,04,51,7.20
2007,06,25,04,52,7.20
2007,06,25,04,53,7.20
2007,06,25,04,54,7.20
2007,06,25,04,55,7.20
2007,06,25,04,56,7.20
2007,06,25,04,57,7.20
2007,06,25,04,58,7.20
2007,06,25,04,59,7.20
2007,06,25,05,00,7.20
2007,06,25,05,01,7.20
2007,06,25,05,02,7.20
2007,06,25,05,03,7.20
2007,06,25,05,04,7.20
2007,06,25,05,05,7.20
2007,06,25,05,06,7.10
2007,06,25,05,07,7.10
2007,06,25,05,08,7.10
2007,06,25,05,09,7.10
2007,06,25,05,10,7.10
2007,06,25,05,11,7.00
2007,06,25,05,12,7.00
2007,06,25,05,13,7.00
2007,06,25,05,14,6.90
2007,06,25,05,15,6.90
2007,06,25,05,16,6.90
2007,06,25,05,17,6.90
2007,06,25,05,18,6.90
2007,06,25,05,19,6.90
2007,06,25,05,20,6.90
2007,06,25,05,21,6.90
2007,06,25,05,22,6.90
2007,06,25,05,23,6.90
2007,06,25,05,24,6.90
2007,06,25,05,25,6.90
2007,06,25,05,26,6.90
2007,06,25,05,27,6.90
2007,06,25,05,28,6.90
2007,06,25,05,29,7.00
2007,06,25,05,30,7.00
2007,06,25,05,31,7.00
2007,06,25,05,32,7.00
2007,06,25,05,33,7.10
2007,06,25,05,34,7.10
2007,06,25,05,35,7.10
2007,06,25,05,36,7.10
2007,06,25,05,37,7.10
2007,06,25,05,38,7.10
2007,06,25,05,39,7.20
2007,06,25,05,40,7.20
2007,06,25,05,41,7.20
2007,06,25,05,42,7.20
2007,06,25,05,43,7.20
2007,06,25,05,44,7.20
2007,06,25,05,45,7.20
2007,06,25,05,46,7.20
2007,06,25,05,47,7.20
2007,06,25,05,48,7.10
2007,06,25,05,49,7.10
2007,06,25,05,50,7.10
2007,06,25,05,51,7.10
2007,06,25,05,52,7.10
2007,06,25,05,53,7.10
2007,06,25,05,54,7.00
2007,06,25,05,55,7.10
2007,06,25,05,56,7.10
2007,06,25,05,57,7.10
2007,06,25,05,58,7.10
2007,06,25,05,59,7.10
2007,06,25,06,00,7.20
2007,06,25,06,01,7.20
2007,06,25,06,02,7.20
2007,06,25,06,03,7.20
2007,06,25,06,04,7.20
2007,06,25,06,05,7.20
2007,06,25,06,06,7.20
2007,06,25,06,07,7.30
2007,06,25,06,08,7.40
2007,06,25,06,09,7.40
2007,06,25,06,10,7.40
2007,06,25,06,11,7.50
2007,06,25,06,12,7.50
2007,06,25,06,13,7.50
2007,06,25,06,14,7.50
2007,06,25,06,15,7.50
2007,06,25,06,16,7.60
2007,06,25,06,17,7.60
2007,06,25,06,18,7.60
2007,06,25,06,19,7.70
2007,06,25,06,20,7.70
2007,06,25,06,21,7.70
2007,06,25,06,22,7.70
2007,06,25,06,23,7.70
2007,06,25,06,24,7.70
2007,06,25,06,25,7.70
2007,06,25,06,26,7.70
2007,06,25,06,27,7.70
2007,06,25,06,28,7.70
2007,06,25,06,29,7.70
2007,06,25,06,30,7.70
2007,06,25,06,31,7.80
2007,06,25,06,32,7.80
2007,06,25,06,33,7.80
2007,06,25,06,34,7.90
2007,06,25,06,35,7.90
2007,06,25,06,36,8.00
2007,06,25,06,37,8.10
2007,06,25,06,38,8.20
2007,06,25,06,39,8.20
2007,06,25,06,40,8.30
2007,06,25,06,41,8.30
2007,06,25,06,42,8.40
2007,06,25,06,43,8.40
2007,06,25,06,44,8.40
2007,06,25,06,45,8.50
2007,06,25,06,46,8.50
2007,06,25,06,47,8.60
2007,06,25,06,48,8.60
2007,06,25,06,49,8.70
2007,06,25,06,50,8.70
2007,06,25,06,51,8.70
2007,06,25,06,52,8.80
2007,06,25,06,53,8.80
2007,06,25,06,54,8.80
2007,06,25,06,55,8.90
2007,06,25,06,56,8.90
2007,06,25,06,57,8.90
2007,06,25,06,58,8.90
2007,06,25,06,59,9.00
2007,06,25,07,00,9.00
2007,06,25,07,01,9.10
2007,06,25,07,02,9.10
2007,06,25,07,03,9.20
2007,06,25,07,04,9.20
2007,06,25,07,05,9.20
2007,06,25,07,06,9.30
2007,06,25,07,07,9.30
2007,06,25,07,08,9.30
2007,06,25,07,09,9.30
2007,06,25,07,10,9.40
2007,06,25,07,11,9.40
2007,06,25,07,12,9.50
2007,06,25,07,13,9.50
2007,06,25,07,14,9.50
2007,06,25,07,15,9.60
2007,06,25,07,16,9.60
2007,06,25,07,17,9.60
2007,06,25,07,18,9.60
2007,06,25,07,19,9.60
2007,06,25,07,20,9.60
2007,06,25,07,21,9.70
2007,06,25,07,22,9.70
2007,06,25,07,23,9.70
2007,06,25,07,24,9.70
2007,06,25,07,25,9.80
2007,06,25,07,26,9.80
2007,06,25,07,27,9.80
2007,06,25,07,28,9.90
2007,06,25,07,29,9.90
2007,06,25,07,30,9.90
2007,06,25,07,31,10.00
2007,06,25,07,32,10.00
2007,06,25,07,33,10.00
2007,06,25,07,34,10.10
2007,06,25,07,35,10.10
2007,06,25,07,36,10.10
2007,06,25,07,37,10.10
2007,06,25,07,38,10.20
2007,06,25,07,39,10.20
2007,06,25,07,40,10.20
2007,06,25,07,41,10.20
2007,06,25,07,42,10.20
2007,06,25,07,43,10.20
2007,06,25,07,44,10.20
2007,06,25,07,45,10.20
2007,06,25,07,46,10.20
2007,06,25,07,47,10.20
2007,06,25,07,48,10.20
2007,06,25,07,49,10.30
2007,06,25,07,50,10.30
2007,06,25,07,51,10.30
2007,06,25,07,52,10.40
2007,06,25,07,53,10.40
2007,06,25,07,54,10.40
2007,06,25,07,55,10.50
2007,06,25,07,56,10.50
2007,06,25,07,57,10.60
2007,06,25,07,58,10.60
2007,06,25,07,59,10.70
2007,06,25,08,00,10.80
2007,06,25,08,01,10.80
2007,06,25,08,02,10.80
2007,06,25,08,03,10.80
2007,06,25,08,04,10.80
2007,06,25,08,05,10.90
2007,06,25,08,06,10.90
2007,06,25,08,07,10.90
2007,06,25,08,08,10.90
2007,06,25,08,09,10.90
2007,06,25,08,10,10.90
2007,06,25,08,11,10.90
2007,06,25,08,12,10.90
2007,06,25,08,13,10.90
2007,06,25,08,14,10.90
2007,06,25,08,15,10.90
2007,06,25,08,16,10.90
2007,06,25,08,17,10.90
2007,06,25,08,18,10.80
2007,06,25,08,19,10.90
2007,06,25,08,20,10.90
2007,06,25,08,21,10.90
2007,06,25,08,22,10.90
2007,06,25,08,23,10.90
2007,06,25,08,24,11.00
2007,06,25,08,25,11.10
2007,06,25,08,26,11.10
2007,06,25,08,27,11.10
2007,06,25,08,28,11.20
2007,06,25,08,29,11.20
2007,06,25,08,30,11.20
2007,06,25,08,31,11.30
2007,06,25,08,32,11.30
2007,06,25,08,33,11.40
2007,06,25,08,34,11.50
2007,06,25,08,35,11.50
2007,06,25,08,36,11.60
2007,06,25,08,37,11.60
2007,06,25,08,38,11.70
2007,06,25,08,39,11.80
2007,06,25,08,40,11.80
2007,06,25,08,41,11.80
2007,06,25,08,42,11.80
2007,06,25,08,43,11.80
2007,06,25,08,44,11.80
2007,06,25,08,45,11.80
2007,06,25,08,46,11.80
2007,06,25,08,47,11.90
2007,06,25,08,48,11.90
2007,06,25,08,49,12.00
2007,06,25,08,50,12.00
2007,06,25,08,51,12.10
2007,06,25,08,52,12.10
2007,06,25,08,53,12.10
2007,06,25,08,54,12.10
2007,06,25,08,55,12.10
2007,06,25,08,56,12.10
2007,06,25,08,57,12.10
2007,06,25,08,58,12.10
2007,06,25,08,59,12.10
2007,06,25,09,00,12.10
2007,06,25,09,01,12.10
2007,06,25,09,02,12.10
2007,06,25,09,03,12.10
2007,06,25,09,04,12.10
2007,06,25,09,05,12.20
2007,06,25,09,06,12.20
2007,06,25,09,07,12.20
2007,06,25,09,08,12.30
2007,06,25,09,09,12.20
2007,06,25,09,10,12.30
2007,06,25,09,11,12.20
2007,06,25,09,12,12.20
2007,06,25,09,13,12.20
2007,06,25,09,14,12.30
2007,06,25,09,15,12.30
2007,06,25,09,16,12.40
2007,06,25,09,17,12.40
2007,06,25,09,18,12.30
2007,06,25,09,19,12.10
2007,06,25,09,20,12.00
2007,06,25,09,21,11.90
2007,06,25,09,22,11.90
2007,06,25,09,23,11.90
2007,06,25,09,24,11.90
2007,06,25,09,25,11.90
2007,06,25,09,26,11.90
2007,06,25,09,27,11.90
2007,06,25,09,28,12.00
2007,06,25,09,29,12.00
2007,06,25,09,30,12.10
2007,06,25,09,31,12.20
2007,06,25,09,32,12.30
2007,06,25,09,33,12.30
2007,06,25,09,34,12.30
2007,06,25,09,35,12.20
2007,06,25,09,36,12.20
2007,06,25,09,37,12.20
2007,06,25,09,38,12.20
2007,06,25,09,39,12.10
2007,06,25,09,40,12.00
2007,06,25,09,41,12.00
2007,06,25,09,42,11.90
2007,06,25,09,43,12.00
2007,06,25,09,44,12.10
2007,06,25,09,45,12.10
2007,06,25,09,46,12.20
2007,06,25,09,47,12.20
2007,06,25,09,48,12.30
2007,06,25,09,49,12.30
2007,06,25,09,50,12.30
2007,06,25,09,51,12.30
2007,06,25,09,52,12.30
2007,06,25,09,53,12.30
2007,06,25,09,54,12.20
2007,06,25,09,55,12.20
2007,06,25,09,56,12.20
2007,06,25,09,57,12.20
2007,06,25,09,58,12.20
2007,06,25,09,59,12.30
2007,06,25,10,00,12.30
2007,06,25,10,01,12.30
2007,06,25,10,02,12.30
2007,06,25,10,03,12.30
2007,06,25,10,04,12.40
2007,06,25,10,05,12.40
2007,06,25,10,06,12.40
2007,06,25,10,07,12.40
2007,06,25,10,08,12.30
2007,06,25,10,09,12.10
2007,06,25,10,10,12.00
2007,06,25,10,11,11.90
2007,06,25,10,12,11.90
2007,06,25,10,13,11.90
2007,06,25,10,14,11.90
2007,06,25,10,15,11.90
2007,06,25,10,16,12.00
2007,06,25,10,17,12.00
2007,06,25,10,18,12.10
2007,06,25,10,19,12.10
2007,06,25,10,20,12.20
2007,06,25,10,21,12.30
2007,06,25,10,22,12.40
2007,06,25,10,23,12.40
2007,06,25,10,24,12.50
2007,06,25,10,25,12.50
2007,06,25,10,26,12.60
2007,06,25,10,27,12.50
2007,06,25,10,28,12.50
2007,06,25,10,29,12.60
2007,06,25,10,30,12.70
2007,06,25,10,31,12.70
2007,06,25,10,32,12.70
2007,06,25,10,33,12.70
2007,06,25,10,34,12.80
2007,06,25,10,35,12.80
2007,06,25,10,36,12.90
2007,06,25,10,37,12.90
2007,06,25,10,38,12.90
2007,06,25,10,39,13.00
2007,06,25,10,40,13.00
2007,06,25,10,41,13.00
2007,06,25,10,42,13.20
2007,06,25,10,43,13.20
2007,06,25,10,44,13.30
2007,06,25,10,45,13.40
2007,06,25,10,46,13.40
2007,06,25,10,47,13.40
2007,06,25,10,48,13.40
2007,06,25,10,49,13.30
2007,06,25,10,50,13.20
2007,06,25,10,51,13.30
2007,06,25,10,52,13.30
2007,06,25,10,53,13.20
2007,06,25,10,54,13.20
2007,06,25,10,55,13.30
2007,06,25,10,56,13.30
2007,06,25,10,57,13.30
2007,06,25,10,58,13.30
2007,06,25,10,59,13.30
2007,06,25,11,00,13.30
2007,06,25,11,01,13.30
2007,06,25,11,02,13.30
2007,06,25,11,03,13.30
2007,06,25,11,04,13.40
2007,06,25,11,05,13.40
2007,06,25,11,06,13.50
2007,06,25,11,07,13.60
2007,06,25,11,08,13.60
2007,06,25,11,09,13.60
2007,06,25,11,10,13.60
2007,06,25,11,11,13.60
2007,06,25,11,12,13.60
2007,06,25,11,13,13.70
2007,06,25,11,14,13.80
2007,06,25,11,15,13.80
2007,06,25,11,16,13.80
2007,06,25,11,17,13.80
2007,06,25,11,18,13.80
2007,06,25,11,19,13.70
2007,06,25,11,20,13.70
2007,06,25,11,21,13.60
2007,06,25,11,22,13.60
2007,06,25,11,23,13.60
2007,06,25,11,24,13.70
2007,06,25,11,25,13.70
2007,06,25,11,26,13.80
2007,06,25,11,27,13.80
2007,06,25,11,28,13.80
2007,06,25,11,29,13.80
2007,06,25,11,30,13.80
2007,06,25,11,31,13.90
2007,06,25,11,32,13.90
2007,06,25,11,33,14.00
2007,06,25,11,34,14.10
2007,06,25,11,35,14.10
2007,06,25,11,36,14.00
2007,06,25,11,37,13.90
2007,06,25,11,38,13.90
2007,06,25,11,39,13.90
2007,06,25,11,40,13.90
2007,06,25,11,41,14.00
2007,06,25,11,42,14.10
2007,06,25,11,43,14.30
2007,06,25,11,44,14.30
2007,06,25,11,45,14.40
2007,06,25,11,46,14.40
2007,06,25,11,47,14.40
2007,06,25,11,48,14.40
2007,06,25,11,49,14.40
2007,06,25,11,50,14.50
2007,06,25,11,51,14.50
2007,06,25,11,52,14.40
2007,06,25,11,53,14.40
2007,06,25,11,54,14.40
2007,06,25,11,55,14.40
2007,06,25,11,56,14.40
2007,06,25,11,57,14.40
2007,06,25,11,58,14.40
2007,06,25,11,59,14.50
2007,06,25,12,00,14.60
2007,06,25,12,01,14.70
2007,06,25,12,02,14.80
2007,06,25,12,03,14.80
2007,06,25,12,04,14.70
2007,06,25,12,05,14.80
2007,06,25,12,06,14.80
2007,06,25,12,07,14.90
2007,06,25,12,08,15.00
2007,06,25,12,09,15.00
2007,06,25,12,10,14.90
2007,06,25,12,11,14.80
2007,06,25,12,12,14.80
2007,06,25,12,13,14.70
2007,06,25,12,14,14.70
2007,06,25,12,15,14.80
2007,06,25,12,16,14.90
2007,06,25,12,17,14.90
2007,06,25,12,18,14.90
2007,06,25,12,19,14.90
2007,06,25,12,20,14.90
2007,06,25,12,21,15.00
2007,06,25,12,22,15.00
2007,06,25,12,23,15.00
2007,06,25,12,24,15.00
2007,06,25,12,25,15.00
2007,06,25,12,26,15.00
2007,06,25,12,27,14.90
2007,06,25,12,28,14.80
2007,06,25,12,29,14.70
2007,06,25,12,30,14.70
2007,06,25,12,31,14.70
2007,06,25,12,32,14.70
2007,06,25,12,33,14.80
2007,06,25,12,34,14.80
2007,06,25,12,35,14.80
2007,06,25,12,36,14.80
2007,06,25,12,37,14.80
2007,06,25,12,38,14.70
2007,06,25,12,39,14.70
2007,06,25,12,40,14.60
2007,06,25,12,41,14.50
2007,06,25,12,42,14.60
2007,06,25,12,43,14.70
2007,06,25,12,44,14.70
2007,06,25,12,45,14.60
2007,06,25,12,46,14.40
2007,06,25,12,47,14.30
2007,06,25,12,48,14.30
2007,06,25,12,49,14.30
2007,06,25,12,50,14.50
2007,06,25,12,51,14.50
2007,06,25,12,52,14.60
2007,06,25,12,53,14.70
2007,06,25,12,54,14.70
2007,06,25,12,55,14.70
2007,06,25,12,56,14.60
2007,06,25,12,57,14.50
2007,06,25,12,58,14.50
2007,06,25,12,59,14.50
2007,06,25,13,00,14.60
2007,06,25,13,01,14.70
2007,06,25,13,02,14.70
2007,06,25,13,03,14.70
2007,06,25,13,04,14.50
2007,06,25,13,05,14.40
2007,06,25,13,06,14.30
2007,06,25,13,07,14.30
2007,06,25,13,08,14.20
2007,06,25,13,09,14.20
2007,06,25,13,10,14.20
2007,06,25,13,11,14.20
2007,06,25,13,12,14.30
2007,06,25,13,13,14.40
2007,06,25,13,14,14.40
2007,06,25,13,15,14.30
2007,06,25,13,16,14.30
2007,06,25,13,17,14.30
2007,06,25,13,18,14.20
2007,06,25,13,19,14.10
2007,06,25,13,20,14.00
2007,06,25,13,21,14.00
2007,06,25,13,22,13.90
2007,06,25,13,23,13.80
2007,06,25,13,24,13.80
2007,06,25,13,25,13.70
2007,06,25,13,26,13.70
2007,06,25,13,27,13.70
2007,06,25,13,28,13.70
2007,06,25,13,29,13.70
2007,06,25,13,30,13.80
2007,06,25,13,31,14.00
2007,06,25,13,32,14.20
2007,06,25,13,33,14.20
2007,06,25,13,34,14.30
2007,06,25,13,35,14.40
2007,06,25,13,36,14.30
2007,06,25,13,37,14.20
2007,06,25,13,38,14.10
2007,06,25,13,39,14.10
2007,06,25,13,40,14.00
2007,06,25,13,41,14.10
2007,06,25,13,42,14.10
2007,06,25,13,43,14.20
2007,06,25,13,44,14.20
2007,06,25,13,45,14.20
2007,06,25,13,46,14.30
2007,06,25,13,47,14.40
2007,06,25,13,48,14.40
2007,06,25,13,49,14.40
2007,06,25,13,50,14.50
2007,06,25,13,51,14.50
2007,06,25,13,52,14.60
2007,06,25,13,53,14.50
2007,06,25,13,54,14.40
2007,06,25,13,55,14.30
2007,06,25,13,56,14.20
2007,06,25,13,57,14.00
2007,06,25,13,58,13.80
2007,06,25,13,59,13.80
2007,06,25,14,00,13.90
2007,06,25,14,01,14.00
2007,06,25,14,02,14.10
2007,06,25,14,03,14.10
2007,06,25,14,04,14.20
2007,06,25,14,05,14.30
2007,06,25,14,06,14.30
2007,06,25,14,07,14.30
2007,06,25,14,08,14.30
2007,06,25,14,09,14.40
2007,06,25,14,10,14.40
2007,06,25,14,11,14.40
2007,06,25,14,12,14.20
2007,06,25,14,13,14.00
2007,06,25,14,14,14.10
2007,06,25,14,15,14.20
2007,06,25,14,16,14.10
2007,06,25,14,17,14.10
2007,06,25,14,18,14.00
2007,06,25,14,19,13.80
2007,06,25,14,20,13.80
2007,06,25,14,21,13.80
2007,06,25,14,22,13.90
2007,06,25,14,23,13.90
2007,06,25,14,24,13.80
2007,06,25,14,25,13.80
2007,06,25,14,26,13.70
2007,06,25,14,27,13.70
2007,06,25,14,28,13.70
2007,06,25,14,29,13.70
2007,06,25,14,30,13.80
2007,06,25,14,31,13.90
2007,06,25,14,32,14.00
2007,06,25,14,33,14.00
2007,06,25,14,34,14.00
2007,06,25,14,35,13.90
2007,06,25,14,36,13.90
2007,06,25,14,37,13.90
2007,06,25,14,38,13.90
2007,06,25,14,39,13.90
2007,06,25,14,40,14.00
2007,06,25,14,41,14.00
2007,06,25,14,42,13.90
2007,06,25,14,43,13.80
2007,06,25,14,44,13.90
2007,06,25,14,45,14.00
2007,06,25,14,46,14.10
2007,06,25,14,47,14.10
2007,06,25,14,48,14.00
2007,06,25,14,49,14.10
2007,06,25,14,50,14.10
2007,06,25,14,51,14.00
2007,06,25,14,52,14.10
2007,06,25,14,53,14.10
2007,06,25,14,54,14.00
2007,06,25,14,55,13.90
2007,06,25,14,56,13.90
2007,06,25,14,57,13.90
2007,06,25,14,58,14.00
2007,06,25,14,59,14.00
2007,06,25,15,00,13.90
2007,06,25,15,01,13.90
2007,06,25,15,02,13.80
2007,06,25,15,03,13.90
2007,06,25,15,04,13.80
2007,06,25,15,05,13.70
2007,06,25,15,06,13.70
2007,06,25,15,07,13.70
2007,06,25,15,08,13.80
2007,06,25,15,09,13.80
2007,06,25,15,10,13.90
2007,06,25,15,11,13.90
2007,06,25,15,12,13.90
2007,06,25,15,13,13.90
2007,06,25,15,14,13.90
2007,06,25,15,15,13.90
2007,06,25,15,16,13.90
2007,06,25,15,17,13.90
2007,06,25,15,18,14.00
2007,06,25,15,19,14.00
2007,06,25,15,20,14.00
2007,06,25,15,21,14.10
2007,06,25,15,22,14.10
2007,06,25,15,23,14.20
2007,06,25,15,24,14.20
2007,06,25,15,25,14.40
2007,06,25,15,26,14.50
2007,06,25,15,27,14.50
2007,06,25,15,28,14.40
2007,06,25,15,29,14.40
2007,06,25,15,30,14.30
2007,06,25,15,31,14.30
2007,06,25,15,32,14.30
2007,06,25,15,33,14.30
2007,06,25,15,34,14.30
2007,06,25,15,35,14.30
2007,06,25,15,36,14.40
2007,06,25,15,37,14.60
2007,06,25,15,38,14.70
2007,06,25,15,39,14.70
2007,06,25,15,40,14.80
2007,06,25,15,41,14.90
2007,06,25,15,42,15.00
2007,06,25,15,43,15.00
2007,06,25,15,44,15.00
2007,06,25,15,45,15.00
2007,06,25,15,46,15.00
2007,06,25,15,47,15.20
2007,06,25,15,48,15.30
2007,06,25,15,49,15.30
2007,06,25,15,50,15.20
2007,06,25,15,51,15.00
2007,06,25,15,52,15.00
2007,06,25,15,53,14.80
2007,06,25,15,54,14.70
2007,06,25,15,55,14.80
2007,06,25,15,56,14.80
2007,06,25,15,57,14.90
2007,06,25,15,58,14.90
2007,06,25,15,59,14.90
2007,06,25,16,00,15.00
2007,06,25,16,01,15.00
2007,06,25,16,02,15.00
2007,06,25,16,03,15.00
2007,06,25,16,04,15.00
2007,06,25,16,05,15.00
2007,06,25,16,06,15.00
2007,06,25,16,07,15.00
2007,06,25,16,08,15.00
2007,06,25,16,09,15.00
2007,06,25,16,10,15.00
2007,06,25,16,11,15.00
2007,06,25,16,12,15.00
2007,06,25,16,13,15.00
2007,06,25,16,14,15.00
2007,06,25,16,15,14.90
2007,06,25,16,16,14.80
2007,06,25,16,17,14.60
2007,06,25,16,18,14.40
2007,06,25,16,19,14.20
2007,06,25,16,20,13.90
2007,06,25,16,21,13.70
2007,06,25,16,22,13.60
2007,06,25,16,23,13.40
2007,06,25,16,24,13.30
2007,06,25,16,25,13.30
2007,06,25,16,26,13.30
2007,06,25,16,27,13.40
2007,06,25,16,28,13.50
2007,06,25,16,29,13.60
2007,06,25,16,30,13.70
2007,06,25,16,31,13.70
2007,06,25,16,32,13.80
2007,06,25,16,33,13.80
2007,06,25,16,34,13.80
2007,06,25,16,35,13.80
2007,06,25,16,36,13.90
2007,06,25,16,37,13.90
2007,06,25,16,38,14.00
2007,06,25,16,39,14.10
2007,06,25,16,40,14.00
2007,06,25,16,41,14.00
2007,06,25,16,42,14.00
2007,06,25,16,43,13.90
2007,06,25,16,44,13.90
2007,06,25,16,45,13.90
2007,06,25,16,46,13.90
2007,06,25,16,47,13.90
2007,06,25,16,48,13.90
2007,06,25,16,49,14.00
2007,06,25,16,50,14.10
2007,06,25,16,51,14.10
2007,06,25,16,52,14.30
2007,06,25,16,53,14.40
2007,06,25,16,54,14.40
2007,06,25,16,55,14.40
2007,06,25,16,56,14.40
2007,06,25,16,57,14.40
2007,06,25,16,58,14.50
2007,06,25,16,59,14.50
2007,06,25,17,00,14.60
2007,06,25,17,01,14.70
2007,06,25,17,02,14.80
2007,06,25,17,03,14.80
2007,06,25,17,04,14.80
2007,06,25,17,05,14.80
2007,06,25,17,06,14.80
2007,06,25,17,07,14.70
2007,06,25,17,08,14.70
2007,06,25,17,09,14.70
2007,06,25,17,10,14.70
2007,06,25,17,11,14.70
2007,06,25,17,12,14.80
2007,06,25,17,13,14.80
2007,06,25,17,14,14.80
2007,06,25,17,15,14.80
2007,06,25,17,16,14.80
2007,06,25,17,17,14.80
2007,06,25,17,18,14.80
2007,06,25,17,19,14.80
2007,06,25,17,20,14.70
2007,06,25,17,21,14.70
2007,06,25,17,22,14.70
2007,06,25,17,23,14.80
2007,06,25,17,24,14.80
2007,06,25,17,25,14.70
2007,06,25,17,26,14.60
2007,06,25,17,27,14.60
2007,06,25,17,28,14.50
2007,06,25,17,29,14.50
2007,06,25,17,30,14.50
2007,06,25,17,31,14.70
2007,06,25,17,32,14.70
2007,06,25,17,33,14.70
2007,06,25,17,34,14.70
2007,06,25,17,35,14.70
2007,06,25,17,36,14.80
2007,06,25,17,37,15.00
2007,06,25,17,38,15.00
2007,06,25,17,39,15.00